User: anonymous   Login
Location: Presov
(49.0000°N, 21.2500°E)
Time: 06:49:32
(UTC+02:00)
Language:

Transit 2A Rocket - Orbit

View from above orbital plane
View from above orbital plane
View from above satellite
View from above satellite

Ground track
Ground track

The orbit data is extracted from the following two-line orbital elements,

1    47U 60007C   21103.16517406 -.00000033  00000-0  17491-4 0  9994
2    47  66.6657  73.5822 0219867  83.7364 278.8733 14.42142535178342
Epoch (UTC): 13 April 2021 03:57:51
Eccentricity: 0.0219867
inclination: 66.6657°
perigee height: 594 km
apogee height: 908 km
right ascension of ascending node: 73.5822°
argument of perigee: 83.7364°
revolutions per day: 14.42142535
mean anomaly at epoch: 278.8733°
orbit number at epoch: 17834

The dashed part of the orbit path shows where the satellite is in the earth's shadow,  

DLR